sat.trackr.live / text

‹ back to catalog

CUBY-2

NORAD 69881 · 2026-156N

PAYLOAD ACTIVE UNKNOWN

§ Identity

Operator
Country
GER
Launch date
2026-07-07
Launch site
AFWTR
Launch vehicle
Mass (kg)
RCS (m²)

External: N2YO · Heavens-Above · Gunter

§ Orbital elements

Epoch: 2026-09-20T04:01:33.148128Z

Period
96.57 min
Inclination
97.7404°
Eccentricity
0.0002865
Mean motion
14.91083849 rev/d
Perigee alt
592.6 km
Apogee alt
596.6 km
Semi-major
6,972.7 km
B*
2.9920e-5
RAAN
162.2401°
Arg perigee
225.4279°
Mean anomaly
134.6706°
Rev number
1,115

§ Raw data

CUBY-21 69881U 26156N   26263.16774477  .00000241  00000+0  29920-4 0  99962 69881  97.7404 162.2401 0002865 225.4279 134.6706 14.91083849 11155

JSON: /api/v1/satellites/69881 · /tle

For live sub-satellite position, see the globe view (requires WebGL).

§ Visibility from observer

Set your observer location to see the next 7 days of passes ≥ 10°. The values pass through the URL so the page stays shareable.

No JS? Fill the form by hand. The geolocation button needs JavaScript.